OPS 4682 DEB, 38376

Orbit data source: Space-Track

OPS 4682 DEB, 38376 is space debris in LEO originally from a launch on Sat, 03 Apr 1965 UTC launched from the Air Force Western Test Range (AFWTR). Debris objects in space refer to the collection of defunct objects orbiting the Earth. Examples of debris include non-operational satellites, rocket bodies, and fragments generated from explosions, collisions, or faulty payload assembly.

Loading next visibility...
Identifier
38376, 1965-027CD
Orbit
LEO
Country
Flag of USUS
Related business
Manufacturer
Unknown
Mission
Spacecraft
Bus & Motor
Unknown
Mass
Unknown
Launch date (UTC)
1965-04-03 (61 years ago)
Launch vehicle
Unknown
Launch site
Air Force Western Test Range (AFWTR)
Object type
Payload
Rocket body
Debris
Shape & HBR
Unknown shape, 0.1 m
Radar Cross Section
Medium (>0.1 m² and <1 m²)

Expand to show TLE details & history
Last TLE update: 17 hours ago

TLE from 17 hours ago
0 OPS 4682 DEB
1 38376U 65027CD  26263.02776830 -.00000154  00000-0 -56588-3 0  9996
2 38376  90.2499  12.8835 0027712 250.8468 108.9651 12.95879193674079
Epoch: 2026-09-20T00:39Z
TLE epoch observation values (Epoch: 2026-09-20T00:39:59.181Z)
Latitude
-0.00005°
Longitude
3.95907°
Altitude
1,288.102 km
Speed
7.209 km/s
True Right ascension
00h 51m 32s
True Declination
0° 00' 00"
Sunlit
Object was in full shadow at epoch
Visualization orbit readout
Latitude
Unknown
Longitude
Unknown
Altitude
Unknown
Speed
Unknown
Apparent Right ascension
Unknown
Apparent Declination
Unknown
Sunlit
N/A
Visualization observer readout
Local Sidereal Time
10:57:28
Azimuth
Unknown
Elevation
Unknown
Doppler factor
Unknown
Orbital elements
Apogee altitude
1,296.618 km
Perigee altitude
1,254.199 km
Semi-major axis
7,653.545 km
Eccentricity
0.00277
Inclination
90.2499°
RAAN
12.8835°
Arg. of periapsis
250.8468°
True anomaly
109.26508°
Mean anomaly
108.9651°
Eccentric anomaly
109.11512°
Mean motion
3.24152 °/min
Orbital period
111.06 mins
BSTAR
-0.00056588
Loading maneuver chart data...
Computing Atmospheric mass density...
Loading historical data...
Loading historical data...
Loading historical data...
Loading historical data...
Loading historical data...
Loading historical data...
Loading historical data...

Documentation

Showing up to 5 results
|